Weather History for KRUG - January, 2014

Change the Weather History Date:

Friday, January 17, 2014

  Actual Average Record
Temperature  
Mean Temperature 16 °F -  
Max Temperature 33 °F 16 °F 43 °F (1972)
Min Temperature 0 °F -5 °F -34 °F (1962)
Degree Days  
Heating Degree Days 48    
Moisture  
Dew Point 13 °F    
Average Humidity 90    
Maximum Humidity 100    
Minimum Humidity 80    
Precipitation  
Precipitation 0.11 in - - ()
Sea Level Pressure  
Sea Level Pressure 29.80 in    
Wind  
Wind Speed 7 mph (SSW)    
Max Wind Speed 34 mph    
Max Gust Speed 48 mph    
Visibility 9 miles    
Events Rain , Snow    
Averages and records for this station are not official NWS values.
T = Trace of Precipitation, MM = Missing Value Source: NWS Daily Summary

Daily Weather History Graph

Daily Weather History Graph

Search for Another Location

Airport or City:

Trip Planner

Search our weather history database for the weather conditions in past years. The results will help you decide how hot, cold, wet, or windy it might be!

Date:

Astronomy

Jan. 17, 2014 Rise Set
Actual Time 8:24 AM CST 5:16 PM CST
Civil Twilight 7:49 AM CST 5:51 PM CST
Nautical Twilight 7:10 AM CST 6:30 PM CST
Astronomical Twilight 6:33 AM CST 7:07 PM CST
Moon 7:16 PM CST (1/17) 8:42 AM CST (1/17)
Length of Visible Light 10h 01m
Length of Day
8h 51m
Full, 98% of the Moon is Illuminated
Jan 17
Full
Jan 23
Last Quarter
Jan 30
New
Feb 6
First Quarter
Feb 14
Full

Hourly Weather History & Observations

Time (CST) Temp. Windchill Dew Point Humidity Pressure Visibility Wind Dir Wind Speed Gust Speed Precip Events Conditions
12:15 AM -0.4 °F -8.3 °F -4.0 °F 85% 30.12 in 10.0 mi NW 3.5 mph - N/A   Clear
12:35 AM -0.4 °F -10.4 °F -4.0 °F 85% 30.11 in 10.0 mi WNW 4.6 mph - N/A   Clear
12:55 AM -0.4 °F - -4.0 °F 85% 30.11 in 10.0 mi Calm Calm - N/A   Clear
1:15 AM -0.4 °F - -4.0 °F 85% 30.10 in 10.0 mi Calm Calm - N/A   Clear
1:35 AM -0.4 °F -8.3 °F -4.0 °F 85% 30.09 in 10.0 mi West 3.5 mph - N/A   Clear
1:55 AM -0.4 °F -8.3 °F -2.2 °F 92% 30.08 in 10.0 mi SW 3.5 mph - N/A   Clear
2:15 AM -0.4 °F -12.0 °F -4.0 °F 85% 30.08 in 10.0 mi SW 5.8 mph - N/A   Clear
2:35 AM -0.4 °F -12.0 °F -4.0 °F 85% 30.08 in 10.0 mi SW 5.8 mph - N/A   Clear
2:55 AM -0.4 °F -14.7 °F -4.0 °F 85% 30.07 in 10.0 mi SW 8.1 mph - N/A   Clear
3:15 AM -0.4 °F -14.7 °F -4.0 °F 85% 30.07 in 10.0 mi SW 8.1 mph - N/A   Clear
3:35 AM -0.4 °F -13.4 °F -2.2 °F 92% 30.06 in 10.0 mi SW 6.9 mph - N/A   Clear
3:55 AM 1.4 °F -9.9 °F -0.4 °F 92% 30.05 in 10.0 mi SW 5.8 mph - N/A   Clear
4:15 AM -0.4 °F - -2.2 °F 92% 30.05 in 10.0 mi Calm Calm - N/A   Clear
4:35 AM -0.4 °F -8.3 °F -2.2 °F 92% 30.04 in 10.0 mi SW 3.5 mph - N/A   Clear
4:55 AM 1.4 °F -6.2 °F -0.4 °F 92% 30.03 in 10.0 mi SSW 3.5 mph - N/A   Clear
5:15 AM -0.4 °F - -2.2 °F 92% 30.02 in 10.0 mi Calm Calm - N/A   Clear
5:35 AM -0.4 °F -8.3 °F -2.2 °F 92% 30.01 in 10.0 mi SSE 3.5 mph - N/A   Clear
5:55 AM -0.4 °F -8.3 °F -2.2 °F 92% 30.01 in 10.0 mi South 3.5 mph - N/A   Clear
6:15 AM 1.4 °F -8.3 °F -0.4 °F 92% 30.00 in 10.0 mi South 4.6 mph - N/A   Clear
6:35 AM 1.4 °F -8.3 °F -0.4 °F 92% 29.99 in 10.0 mi South 4.6 mph - N/A   Clear
6:55 AM 1.4 °F -8.3 °F -0.4 °F 92% 29.98 in 10.0 mi South 4.6 mph - N/A   Clear
7:15 AM 1.4 °F -8.3 °F -0.4 °F 92% 29.97 in 10.0 mi SSE 4.6 mph - N/A   Clear
7:35 AM 1.4 °F -9.9 °F -0.4 °F 92% 29.96 in 10.0 mi SSE 5.8 mph - N/A   Clear
7:55 AM 1.4 °F -9.9 °F -0.4 °F 92% 29.95 in 10.0 mi SSE 5.8 mph - N/A   Clear
8:15 AM 1.4 °F -12.5 °F -0.4 °F 92% 29.94 in 10.0 mi SSE 8.1 mph - N/A   Clear
8:35 AM 3.2 °F -9.1 °F 1.4 °F 92% 29.93 in 10.0 mi SSE 6.9 mph - N/A   Clear
8:55 AM 5.0 °F -2.1 °F 3.2 °F 92% 29.93 in 10.0 mi SSE 3.5 mph - N/A   Clear
9:15 AM 6.8 °F -3.5 °F 3.2 °F 85% 29.92 in 10.0 mi South 5.8 mph - N/A   Clear
9:35 AM 6.8 °F -3.5 °F 5.0 °F 92% 29.92 in 10.0 mi South 5.8 mph - N/A   Clear
9:55 AM 8.6 °F -1.3 °F 6.8 °F 92% 29.92 in 10.0 mi South 5.8 mph - N/A   Clear
10:15 AM 10.4 °F -0.4 °F 8.6 °F 92% 29.91 in 10.0 mi South 6.9 mph - N/A   Clear
10:35 AM 12.2 °F 0.7 °F 10.4 °F 92% 29.90 in 10.0 mi South 8.1 mph - N/A   Clear
10:55 AM 14.0 °F 3.9 °F 12.2 °F 93% 29.89 in 10.0 mi South 6.9 mph - N/A   Clear
11:15 AM 14.0 °F 2.0 °F 14.0 °F 100% 29.88 in 10.0 mi South 9.2 mph - N/A   Clear
11:35 AM 15.8 °F 4.2 °F 14.0 °F 93% 29.86 in 10.0 mi South 9.2 mph - N/A   Clear
11:55 AM 15.8 °F 6.1 °F 14.0 °F 93% 29.84 in 10.0 mi South 6.9 mph - N/A   Clear
12:15 PM 17.6 °F 9.3 °F 15.8 °F 93% 29.83 in 10.0 mi South 5.8 mph - N/A   Clear
12:35 PM 19.4 °F 7.2 °F 15.8 °F 86% 29.82 in 10.0 mi SSW 11.5 mph - N/A   Clear
12:55 PM 21.2 °F 10.1 °F 17.6 °F 86% 29.80 in 10.0 mi SSW 10.4 mph - N/A   Clear
1:15 PM 23.0 °F 14.7 °F 17.6 °F 80% 29.79 in 10.0 mi SSW 6.9 mph - N/A   Clear
1:35 PM 23.0 °F 14.7 °F 19.4 °F 86% 29.77 in 10.0 mi South 6.9 mph - N/A   Clear
1:55 PM 23.0 °F 17.0 °F 19.4 °F 86% 29.75 in 10.0 mi South 4.6 mph - N/A   Clear
2:15 PM 24.8 °F 19.1 °F 19.4 °F 80% 29.75 in 2.5 mi SSE 4.6 mph - N/A Snow Light Snow
2:35 PM 23.0 °F 14.7 °F 23.0 °F 100% 29.73 in 1.0 mi SSE 6.9 mph - 0.05 in Snow Light Snow
2:55 PM 23.0 °F 13.9 °F 23.0 °F 100% 29.72 in 0.8 mi South 8.1 mph - 0.09 in Snow Light Snow
3:15 PM 24.8 °F 16.1 °F 23.0 °F 93% 29.71 in 1.5 mi South 8.1 mph - N/A Snow Light Snow
3:35 PM 24.8 °F 16.9 °F 23.0 °F 93% 29.70 in 9.0 mi South 6.9 mph - N/A   Overcast
3:55 PM 24.8 °F 16.1 °F 24.8 °F 100% 29.68 in 10.0 mi South 8.1 mph - 0.01 in   Overcast
4:15 PM 24.8 °F 16.9 °F 24.8 °F 100% 29.67 in 10.0 mi South 6.9 mph - N/A   Scattered Clouds
4:35 PM 24.8 °F 16.1 °F 24.8 °F 100% 29.64 in 10.0 mi South 8.1 mph - N/A   Partly Cloudy
4:55 PM 26.6 °F 19.1 °F 24.8 °F 93% 29.64 in 10.0 mi SSW 6.9 mph - N/A   Partly Cloudy
5:15 PM 26.6 °F 16.2 °F 24.8 °F 93% 29.64 in 10.0 mi SSW 11.5 mph - N/A   Partly Cloudy
5:35 PM 26.6 °F 16.2 °F 23.0 °F 86% 29.64 in 10.0 mi SW 11.5 mph - N/A   Partly Cloudy
5:55 PM 26.6 °F 15.7 °F 23.0 °F 86% 29.61 in 10.0 mi SSW 12.7 mph - N/A   Scattered Clouds
6:15 PM 24.8 °F 14.6 °F 23.0 °F 93% 29.58 in 10.0 mi SSW 10.4 mph - N/A   Partly Cloudy
6:35 PM 24.8 °F 14.6 °F 23.0 °F 93% 29.58 in 10.0 mi SW 10.4 mph - N/A   Clear
6:55 PM 24.8 °F 14.0 °F 23.0 °F 93% 29.55 in 10.0 mi SW 11.5 mph - N/A   Scattered Clouds
7:15 PM 26.6 °F 15.7 °F 24.8 °F 93% 29.55 in 10.0 mi WSW 12.7 mph - N/A   Mostly Cloudy
7:35 PM 28.4 °F 16.2 °F 24.8 °F 86% 29.53 in 10.0 mi West 17.3 mph - N/A   Mostly Cloudy
7:55 PM 30.2 °F 18.1 °F 26.6 °F 86% 29.53 in 10.0 mi West 18.4 mph - N/A   Overcast
8:15 PM 30.2 °F 17.8 °F 26.6 °F 86% 29.51 in 10.0 mi WNW 19.6 mph - N/A   Mostly Cloudy
8:35 PM 28.4 °F 15.8 °F 26.6 °F 93% 29.50 in 10.0 mi WNW 18.4 mph - N/A   Mostly Cloudy
8:55 PM 32.0 °F 18.4 °F 28.4 °F 87% 29.49 in 3.0 mi WNW 26.5 mph 31.1 mph 0.01 in   Overcast
9:15 PM 32.0 °F 18.1 °F 30.2 °F 93% 29.49 in 5.0 mi WNW 27.6 mph 32.2 mph N/A   Overcast
9:35 PM 32.0 °F 17.6 °F 28.4 °F 87% 29.48 in 3.0 mi WNW 29.9 mph 35.7 mph N/A   Overcast
9:55 PM 32.0 °F 18.4 °F 28.4 °F 87% 29.48 in 5.0 mi WNW 26.5 mph 34.5 mph N/A   Overcast
10:15 PM 32.0 °F 18.1 °F 28.4 °F 87% 29.48 in 5.0 mi NW 27.6 mph 35.7 mph N/A   Overcast
10:35 PM 32.0 °F 18.4 °F 28.4 °F 87% 29.47 in 5.0 mi WNW 26.5 mph - N/A   Overcast
10:55 PM 32.0 °F 18.1 °F 28.4 °F 87% 29.47 in 7.0 mi WNW 27.6 mph 36.8 mph N/A   Overcast
11:15 PM 32.0 °F 17.0 °F 30.2 °F 93% 29.46 in 8.0 mi NW 33.4 mph 38.0 mph N/A   Overcast
11:35 PM 33.8 °F 19.2 °F 32.0 °F 93% 29.46 in 4.0 mi NW 34.5 mph 48.3 mph N/A Rain Light Rain
11:55 PM 33.8 °F 19.4 °F 32.0 °F 93% 29.46 in 6.0 mi NW 33.4 mph 44.9 mph N/A Rain Light Rain